Location: Unspecified
(0.0000°N, 0.0000°E)
Time: 22:20:19
(UTC+00:00)

Hubble Space Telescope - Pass Details

Date: 10 October 2017
Orbit: 538 x 541 km, 28.5° (Epoch: 12 December)

Event Time Altitude Azimuth Distance (km) Brightness Sun altitude
Rises 19:37:07 0° 231° (SW) 2,673 5.2 -27.3°
Reaches altitude 10° 19:39:26 10° 226° (SW) 1,782 4.1 -27.9°
Enters shadow 19:41:20 25° 214° (SSW) 1,102 2.7 -28.4°
